Regional Weather Roundup
Issued by NWS New Orleans/Baton Rouge, LA

Home | Current Version | Previous Version | Text Only | Print | Product List | Glossary Off
Versions: 1 2 3 4 5 6 7 8 9 10 11 12 13 14 15 16 17 18 19 20 21 22 23 24 25 26 27 28 29 30 31 32 33 34 35 36 37 38 39 40 41 42 43 44 45 46 47 48 49 50

353
ASUS44 KLIX 262310
RWRLIX
NEW ORLEANS REGIONAL WEATHER ROUNDUP
NATIONAL WEATHER SERVICE NEW ORLEANS LA
600 PM CDT TUE AUG 26 2014

NOTE: "FAIR" INDICATES FEW OR NO CLOUDS BELOW 12,000 FEET WITH NO
      SIGNIFICANT WEATHER AND/OR OBSTRUCTIONS TO VISIBILITY.
      SKY/WX - SKY CONDITION AND SIGNIFICANT WEATHER.
      TMP - AIR TEMPERATURE.     DP    - DEWPOINT TEMPERATURE.
      RH  - RELATIVE HUMIDITY.   PRES  - PRESSURE.
      HI  - HEAT INDEX.          WCI   - WIND CHILL INDEX.

*  THESE STATIONS ARE NOT NWS OR FAA STATIONS AND ARE NOT UNDER
   NWS QUALITY CONTROL.

LAZ038-040-048-061>063-065>067-069-270000-
SOUTHEAST LOUISIANA

CITY           SKY/WX    TMP DP  RH WIND       PRES   REMARKS
N.O. AUDUBON     N/A     87  74  64 MISG        N/A  HX  95
N.O. INTL ARPT CLOUDY    86  69  56 VRB7      29.95S
N.O. LAKEFRONT   N/A     85  71  63 E13       29.96S
N.O. DOWNTOWN*   N/A     86  68  54 E3        29.96S
SLIDELL          N/A     86  73  65 S6        29.95S
BATON ROUGE      N/A     86  71  60 NE5       29.95F
BOOTHVILLE       N/A     84  74  71 E8        29.96S
BELLE CHASSE   PTSUNNY   85  71  63 E8        29.95F
BOGALUSA*        N/A     90  63  40 CALM      29.98S
GALLIANO*      NOT AVBL
NEW ROADS*       N/A     85  71  62 N5        29.96S
GONZALES*        N/A     85  74  70 CALM      29.95S
HAMMOND*         N/A     88  70  55 SE7       29.97S
HOUMA*         MOSUNNY   82  73  74 NE5       29.95F
PORT FOURCHON* CLEAR     81  75  83 NE13      29.96S

$$

MSZ070-080>082-270000-
SOUTHERN MISSISSIPPI

CITY           SKY/WX    TMP DP  RH WIND       PRES   REMARKS
MCCOMB           N/A     87  62  43 E6        29.98F
GULFPORT         N/A     86  73  65 SE10      29.95F
BILOXI           N/A     86  73  64 S8        29.96S
PASCAGOULA       N/A     86  73  65 SE8       29.96R
STENNIS ARPT*  MOSUNNY  N/A N/A N/A S6        29.96S

$$

COASTAL OBSERVATIONS
LAKE AND NEARSHORE STATIONS

STATION/POSITION TIME  TEMP    WIND        PRES    WAVE
                       AIR SEA DIR/SP/G            HT/PER
                 (UTC) (F)     (DEG/KT/KT) (MB)    (FT/S)
PASCAGOULA       2300   87     140/ 10/ 14 1014.1
WAVELAND YACHT   2300   84     140/  9/ 10 1014.0
GRAND ISLE       2300   83 86   70/ 13/ 17 1014.7
SOUTHWEST PASS   2300   85 88   70/ 16/ 18 1014.4
NEW CANAL        2300   85 85  130/  1/  5 1014.8
SHELL BEACH      2300   84 82  100/ 12/ 15 1014.2

OFFSHORE STATIONS

STATION/POSITION TIME  TEMP    WIND        PRES    WAVE
                       AIR SEA DIR/SP/G            HT/PER
                 (UTC) (F)     (DEG/KT/KT) (MB)    (FT/S)
64 S DAUPHIN ISL 2250   84 86   70/ 17/ 19 1014.3

$$




USA.gov is the U.S. government's official web portal to all federal, state and local government web resources and services.